CAPE
441 419 520 552 579 367 347 411 381 364 303 470 444 308 153 97 303 237 339 175 447 297
341 480 553 445 860 361 607 524 232 299 292 327 140 177 191 222 285 212 188 132 158 462
94 181 229 125 680 563 53 202 137 345 401 264 194 233 149 175 383 8 69 159 40 40
172 184 244 129 485 456 74 72 242 400 399 245 217 360 309 200 302 54 51 22 61 49
102 234 237 207 403 518 261 77 71 141 53 196 268 325 313 375 165 248 133 57 32 83
205 242 171 201 259 344 293 113 41 59 42 47 231 221 274 192 236 208 138 42 98 69
313 275 135 180 179 286 306 139 44 28 74 37 50 76 139 257 135 74 62 144 59 76
542 166 174 87 20 108 207 102 39 49 123 142 53 18 79 72 39 112 150 111 53 34
361 139 89 148 240 158 135 51 51 46 0 70 0 0 1 29 8 55 136 93 24 15
176 170 88 100 154 165 69 39 14 9 22 11 0 0 0 0 115 71 67 83 85 26
279 294 286 224 266 12 83 42 80 47 72 0 0 0 0 0 66 57 13 35 11 21
323 199 370 240 479 45 54 56 41 32 33 0 0 0 0 0 35 14 20 0 1 1
354 193 210 286 150 259 65 88 26 1 18 2 0 0 0 0 26 0 1 0 0 0
160 481 372 322 107 345 144 55 34 4 0 30 0 0 0 0 28 1 0 0 0 0
CIN
-64 -45 -13 -12 -12 -15 -16 -13 -13 -7 -15 -7 -7 -7 -14 -26 -15 -25 -23 -21 -16 -19
-71 -17 -7 -17 -4 -16 -5 -4 -15 -2 -6 -3 -11 -12 -16 -16 -15 -19 -27 -28 -22 -13
-125 -50 -32 -30 -3 -5 -16 -6 -8 -7 -4 -9 -13 -15 -20 -17 -10 -29 -26 -26 -31 -42
-78 -51 -15 -35 -4 -5 -13 -9 -7 -4 -8 -8 -3 -5 -18 -17 -12 -24 -30 -39 -38 -45
-99 -31 -17 -14 -7 -5 -7 -28 -48 -9 -64 -7 -7 -8 -10 -4 -16 -6 -26 -46 -48 -33
-53 -30 -23 -6 -5 -6 -8 -8 -66 -50 -76 -68 -11 -10 -3 -3 -7 -23 -30 -33 -17 -12
-12 -16 -36 -8 -8 -6 -7 -9 -46 -22 -26 -27 -30 -8 -20 -11 -24 -34 -40 -12 -27 -14
-9 -39 -8 -27 -31 -8 -8 -19 -31 -15 -22 -19 -31 -3 -31 -19 -18 -6 -6 -9 -30 -18
-6 -31 -16 -4 -6 -7 -13 -19 -26 -39 0 -15 0 -2 -8 -35 -70 -13 -3 -19 -45 -49
-40 -18 -15 -7 -11 -8 -37 -18 -41 -40 -19 -35 0 0 0 -4 -4 -8 -6 -3 -1 -21
-27 -21 -12 -8 -10 -21 -11 -8 -3 -9 -10 0 0 0 0 0 -6 -12 -8 -5 -19 -5
-39 -65 -18 -10 -5 -47 -14 -9 -18 -27 -40 0 0 0 0 -16 -4 -14 -5 -1 -7 -9
-46 -69 -60 -19 -28 -10 -15 -10 -42 -19 -35 -15 0 0 0 0 -8 -3 0 0 0 0
-112 -33 -34 -27 -47 -13 -7 -19 -6 -3 -4 -5 0 0 0 -9 -4 -16 0 0 0 0
Wind_Speed
11 11 13 14 15 14 15 13 13 13 14 15 18 19 19 19 19 21 21 22 22 22
11 12 15 16 16 14 14 15 15 16 16 19 20 20 19 19 19 19 20 22 21 20
12 13 15 16 15 14 15 15 15 16 18 18 19 19 18 17 17 14 11 11 13 16
12 14 15 16 15 16 16 15 16 17 16 16 18 18 17 17 17 17 15 12 12 15
13 14 15 16 16 16 17 16 16 17 19 20 19 18 17 17 18 16 13 15 17 17
13 13 15 16 17 16 16 18 17 12 17 17 18 18 18 17 16 14 14 13 13 18
13 13 14 15 16 16 15 13 12 10 9 10 18 16 15 16 7 16 15 11 9 17
13 13 15 16 17 16 14 11 9 9 10 11 12 11 17 19 19 16 17 11 8 12
15 12 14 16 16 17 17 11 9 9 10 16 10 10 16 17 20 21 21 9 6 15
16 15 16 15 17 17 19 17 10 7 11 9 9 10 11 11 8 20 22 7 7 5
19 20 19 17 17 17 18 19 16 8 6 6 6 6 8 10 7 13 11 7 7 4
20 20 21 21 20 19 20 18 17 7 6 4 3 8 8 9 8 11 10 8 7 7
20 21 22 22 22 21 20 18 17 21 11 4 2 13 9 8 8 9 11 7 10 13
19 20 21 22 22 23 23 23 23 24 26 14 13 14 12 11 7 11 12 14 13 18
Wind_Direction
30 22 11 12 9 15 21 44 70 77 100 138 162 146 129 133 149 173 181 178 177 179
36 18 14 15 16 29 51 74 87 105 102 126 122 109 126 148 167 177 192 183 192 211
31 31 22 19 33 54 84 100 59 74 105 116 119 131 151 166 104 54 27 290 269 242
43 34 26 27 51 67 96 68 71 84 84 90 118 141 145 112 109 86 67 318 319 273
44 26 27 51 65 75 98 89 76 90 110 141 132 129 116 123 113 80 34 62 104 83
34 15 35 62 75 87 96 123 99 38 84 88 94 104 119 87 52 16 346 4 21 92
32 26 33 47 66 77 83 269 68 23 339 27 101 90 43 52 116 183 186 199 214 167
43 53 42 62 67 76 72 0 35 6 344 311 282 307 76 113 151 193 178 224 233 162
55 51 49 56 58 73 84 40 350 330 328 216 334 277 201 183 143 114 143 228 321 37
67 71 72 52 63 57 79 81 31 352 267 332 308 259 244 253 289 97 104 254 239 279
87 95 102 77 61 56 72 91 76 24 317 327 2 336 276 255 324 35 16 346 345 298
95 96 106 101 89 80 88 88 89 342 351 339 322 263 260 250 5 19 12 355 345 6
94 99 108 97 104 101 87 84 90 190 246 4 336 235 255 273 15 21 24 356 15 48
89 86 85 96 106 104 92 78 118 142 164 221 227 228 238 242 9 44 51 44 37 69